TimeEDT,TemperatureF,Dew PointF,Humidity,Sea Level PressureIn,VisibilityMPH,Wind Direction,Wind SpeedMPH,Gust SpeedMPH,PrecipitationIn,Events,Conditions,WindDirDegrees,DateUTC
1:53 AM,55.0,50.0,83,30.14,10.0,Calm,Calm,-,N/A,,Clear,0,2013-08-16 05:53:00
2:53 AM,53.1,48.9,86,30.14,10.0,South,3.5,-,N/A,,Clear,170,2013-08-16 06:53:00
3:53 AM,53.1,50.0,89,30.15,10.0,SSE,4.6,-,N/A,,Mostly Cloudy,160,2013-08-16 07:53:00
4:53 AM,54.0,50.0,86,30.15,10.0,Calm,Calm,-,N/A,,Scattered Clouds,0,2013-08-16 08:53:00
5:53 AM,52.0,48.9,89,30.16,10.0,Calm,Calm,-,N/A,,Clear,0,2013-08-16 09:53:00
6:53 AM,53.1,50.0,89,30.17,7.0,SSE,3.5,-,N/A,,Partly Cloudy,160,2013-08-16 10:53:00
7:53 AM,55.0,52.0,89,30.18,7.0,Calm,Calm,-,N/A,,Partly Cloudy,0,2013-08-16 11:53:00
8:53 AM,61.0,55.9,83,30.19,10.0,Calm,Calm,-,N/A,,Partly Cloudy,0,2013-08-16 12:53:00
9:53 AM,68.0,57.0,68,30.19,10.0,Calm,Calm,-,N/A,,Partly Cloudy,0,2013-08-16 13:53:00
10:53 AM,72.0,50.0,46,30.19,10.0,ESE,3.5,-,N/A,,Clear,120,2013-08-16 14:53:00
11:53 AM,73.9,51.1,45,30.19,10.0,Calm,Calm,-,N/A,,Partly Cloudy,0,2013-08-16 15:53:00
12:53 PM,75.0,50.0,41,30.19,10.0,Calm,Calm,-,N/A,,Partly Cloudy,0,2013-08-16 16:53:00
1:53 PM,75.9,51.1,42,30.19,10.0,Calm,Calm,-,N/A,,Partly Cloudy,0,2013-08-16 17:53:00
2:53 PM,79.0,50.0,36,30.18,10.0,NE,6.9,-,N/A,,Partly Cloudy,40,2013-08-16 18:53:00
3:53 PM,79.0,50.0,36,30.17,10.0,Variable,4.6,-,N/A,,Scattered Clouds,0,2013-08-16 19:53:00
4:53 PM,78.1,48.9,36,30.17,10.0,ENE,4.6,-,N/A,,Partly Cloudy,70,2013-08-16 20:53:00
5:53 PM,79.0,50.0,36,30.17,10.0,ENE,4.6,-,N/A,,Partly Cloudy,70,2013-08-16 21:53:00
6:53 PM,77.0,52.0,42,30.18,10.0,ESE,4.6,-,N/A,,Partly Cloudy,120,2013-08-16 22:53:00
7:53 PM,73.9,55.0,52,30.18,10.0,SE,4.6,-,N/A,,Partly Cloudy,140,2013-08-16 23:53:00
8:53 PM,72.0,55.0,55,30.19,10.0,SW,3.5,-,N/A,,Clear,230,2013-08-17 00:53:00
9:53 PM,69.1,55.9,63,30.20,10.0,NW,3.5,-,N/A,,Clear,320,2013-08-17 01:53:00
10:53 PM,66.0,55.9,70,30.21,10.0,Calm,Calm,-,N/A,,Clear,0,2013-08-17 02:53:00
11:53 PM,62.1,55.0,78,30.22,10.0,Calm,Calm,-,N/A,,Clear,0,2013-08-17 03:53:00